Regional Weather Roundup
Issued by NWS

Home | Current Version | Previous Version | Graphics & Text | Print | Product List | Glossary On
Versions: 1 2 3 4 5 6 7 8 9 10 11 12 13 14 15 16 17 18 19 20 21 22 23 24 25 26 27 28 29 30 31 32 33 34 35 36 37 38 39 40 41 42 43 44 45 46 47 48 49 50
000
ASUS43 KIND 011259
RWRIN

WEATHER ROUNDUP FOR INDIANA
NATIONAL WEATHER SERVICE INDIANAPOLIS IN
900 AM EDT SUN MAY 01 2016

NOTE: "FAIR" INDICATES FEW OR NO CLOUDS BELOW 12,000 FEET WITH NO
SIGNIFICANT WEATHER AND/OR OBSTRUCTIONS TO VISIBILITY.

* - STATION DOES NOT REPORT WEATHER SUCH AS PRECIPITATION OR FOG.

+ - STATION NOT QUALITY CONTROLLED BY THE NATIONAL WEATHER SERVICE.
    USE DATA WITH CAUTION...ESPECIALLY DEWPOINT AND RELATIVE
    HUMIDITY OBSERVATIONS.

INZ001>003-010>013-019-020-011400-
NORTHWEST INDIANA

CITY           SKY/WX    TMP DP  RH WIND       PRES   REMARKS
GARY /AIRPORT/ FOG       46  46 100 N12       29.97R VSB 1/2

$$

LMZ046-743>745-011400-
SOUTHERN LAKE MICHIGAN

STATION/POSITION TIME  TEMP    WIND        PRES    WAVE
                       AIR SEA DIR/SP/G            HT
                 (UTC) (F)     (DEG/KT/KT) (MB)    (FT)
BURNS HARBOR     1213   45      20/ 11/ 13 1014.9R
MICHIGAN CITY    1220   45     350/ 12/ 13   N/A

$$

INZ004-005-014>016-021>024-011400-
NORTH CENTRAL INDIANA

CITY           SKY/WX    TMP DP  RH WIND       PRES   REMARKS
ELKHART        CLOUDY    50  50 100 MISG      29.94R FOG
GOSHEN         CLOUDY    50  49  96 E5        29.93R FOG
PERU/GRISSOM   CLOUDY    54  54 100 NE7       29.90R FOG
SOUTH BEND     CLOUDY    49  48  97 NE6       29.95R FOG

$$

INZ006>009-017-018-025>027-011400-
NORTHEAST INDIANA

CITY           SKY/WX    TMP DP  RH WIND       PRES   REMARKS
ANGOLA *+      CLOUDY    48  39  71 E7        29.93R
FORT WAYNE     FOG       51  49  92 E6        29.94R VSB 1

$$

INZ028-029-035-036-043>045-051>053-011400-
WEST CENTRAL INDIANA

CITY           SKY/WX    TMP DP  RH WIND       PRES   REMARKS
CRAWFORDSVL +  CLOUDY    58  58 100 NW5       29.91R FOG
LAFAYETTE      FOG       53  53 100 N5        29.90S VSB 1/2
TERRE HAUTE    SUNNY     63  55  75 CALM      29.90R

$$

INZ030>032-037>040-046>048-054>057-064-065-011400-
CENTRAL INDIANA

CITY           SKY/WX    TMP DP  RH WIND       PRES   REMARKS
COLUMBUS       CLOUDY    61  61 100 S3        29.92R FOG
INDIANAPOLIS   PTSUNNY   62  58  86 SW3       29.90R
-EAGLE CREEK   CLOUDY    63  60  90 SW5       29.91R
KOKOMO *+      CLOUDY    54  52  94 NE7       29.90F VSB 1/2
SHELBYVILLE    CLOUDY    63  61  93 SW8       29.91R FOG

$$

INZ033-034-041-042-049-050-058-059-011400-
EAST CENTRAL INDIANA

CITY           SKY/WX    TMP DP  RH WIND       PRES   REMARKS
MUNCIE         CLOUDY    64  61  90 W5        29.91R FOG

$$

INZ060-061-067>069-081>083-085>088-011400-
SOUTHWEST INDIANA

CITY           SKY/WX    TMP DP  RH WIND       PRES   REMARKS
EVANSVILLE     CLOUDY    61  56  83 S5        29.90R
HUNTINGBURG *+ CLOUDY    63  61  94 S7        29.90R VSB 1

$$

INZ062-063-066-070>080-084-089>092-011400-
SOUTH CENTRAL AND SOUTHEAST INDIANA

CITY           SKY/WX    TMP DP  RH WIND       PRES   REMARKS
BLOOMINGTON    SUNNY     62  58  86 CALM      29.90R
MADISON *+     MOSUNNY   63  61  94 S3        29.94S
SEYMOUR +      CLOUDY    66  64  94 CALM      29.90

$$





USA.gov is the U.S. government's official web portal to all federal, state and local government web resources and services.